Regional Weather Roundup
Issued by NWS

Home | Current Version | Previous Version | Text Only | Print | Product List | Glossary On
Versions: 1 2 3 4 5 6 7 8 9 10 11 12 13 14 15 16 17 18 19 20 21 22 23 24 25 26 27 28 29 30 31 32 33 34 35 36 37 38 39 40 41 42 43 44 45 46 47 48 49 50
000
ASHW40 PHFO 041010
RWRHI

WEATHER ROUNDUP FOR HAWAII
NATIONAL WEATHER SERVICE HONOLULU HI
1200 AM HST SAT JUL 04 2015

THIS IS AN AUTOMATED REPORT THAT HAS NOT BEEN QUALITY CONTROLLED.

NOTE..."FAIR" INDICATES FEW OR NO CLOUDS BELOW 12,000 FEET WITH NO
SIGNIFICANT WEATHER AND/OR OBSTRUCTIONS TO VISIBILITY.

* - THESE SITES REPORT LIMITED FIELDS

HIZ001>004-041100-
KAUAI-NIIHAU-

CITY           SKY/WX    TMP DP  RH WIND       PRES   REMARKS
LIHUE APT      MOCLDY    78  72  81 E12       29.96F
PORT ALLEN*    NOT AVBL
POIPU*           N/A     79 N/A N/A NE7G14      N/A
PRINCEVILLE*     N/A     73 N/A N/A MISG        N/A
KOKOLE POINT*  NOT AVBL
MOLOAA DAIRY*  NOT AVBL
WAIMEA HTS*    NOT AVBL
PUU OPAE*      NOT AVBL
PUU LUA*       NOT AVBL
MAKAHA RIDGE*  NOT AVBL
$$

HIZ005>011-041100-
OAHU-

CITY           SKY/WX    TMP DP  RH WIND       PRES   REMARKS
HONOLULU       PTCLDY    79  68  69 E8        29.95F
KALAELOA       CLEAR     74  67  78 E3        29.97S
KANEOHE MCB    PTCLDY    77  70  79 VRB5      29.94S
WHEELER FIELD  FAIR      73  66  80 S2        29.96F
BELLOWS*       NOT AVBL
KAHUKU*        NOT AVBL
WHEELER*       NOT AVBL
WAIANAE HARBOR NOT AVBL
DILLINGHAM*      N/A     73  66  78 MISG        N/A
KAHUKU TRN*      N/A     73  68  83 E5G13       N/A
KAWAILOA*        N/A     72  64  78 SE5G12      N/A
KII*             N/A     79  70  73 E13         N/A
MAKUA RANGE*     N/A     75  68  78 SE6         N/A
OAHU FOREST NW NOT AVBL
SCHOFIELD BRK*   N/A     72  68  88 MISG        N/A
SCHOFIELD S*   NOT AVBL
WAIANAE VLY*   NOT AVBL
KUAOKALA*      NOT AVBL
HONOULIUULI*   NOT AVBL
MOKUOLOE IS*   NOT AVBL
PALEHUA*       NOT AVBL
WAIAWA PHB*    NOT AVBL
$$

HIZ012>013-041100-
MOLOKAI-

CITY           SKY/WX    TMP DP  RH WIND       PRES   REMARKS
MOLOKAI AIRPT  CLEAR     74  65  73 N5        29.96F
KALAUPAPA      NOT AVBL
MAKAPULAPAI*   NOT AVBL
MOLOKAI 1*     NOT AVBL
PUU ALII*      NOT AVBL
$$

HIZ016-041100-
KAHOOLAWE-

CITY           SKY/WX    TMP DP  RH WIND       PRES   REMARKS
KAHOOLAWE*     NOT AVBL
HAKIOAWA*      NOT AVBL
HONOKANAIA*      N/A     79  70  73 NE13G26   29.96S
KANELOA*         N/A     75  68  78 E14G25    30.03R
KEALIALALO*    NOT AVBL
LUA MAKIKA*    NOT AVBL
$$

HIZ014>015-041100-
LANAI-

CITY           SKY/WX    TMP DP  RH WIND       PRES   REMARKS
LANAI CITY     CLOUDY    71  67  87 SE6       30.02S
LANAI 1*       NOT AVBL
$$

HIZ017>028-041100-
MAUI-

CITY           SKY/WX    TMP DP  RH WIND       PRES   REMARKS
KAHULUI        NOT AVBL
KAPALUA-W MAUI NOT AVBL
HANA AIRPORT   CLOUDY    73  68  83 S2        29.99S
HANA*          NOT AVBL
HALEAKALA SUMM   N/A     48  25  40 E8G21       N/A
MAALAEA BAY*   NOT AVBL
HALEAKALA*     NOT AVBL
KAUPO GAP*     NOT AVBL
KULA 1*          N/A     58  35  42 E6          N/A
$$

HIZ023>026-041100-
BIG ISLAND OF HAWAII COAST AND LOWER SLOPES-

CITY           SKY/WX    TMP DP  RH WIND       PRES   REMARKS
KAILUA KONA    CLOUDY    80  73  79 SW10      29.93S
HILO           MOCLDY    73  65  75 SW6       29.97F
HONOKAA*       NOT AVBL
KAWAIHAE MWT*  NOT AVBL
KAWAIHAE*        N/A     81 N/A N/A W3          N/A
SOUTH POINT*   NOT AVBL
UPOLU AIRPORT* NOT AVBL
KAMUELA*       PTSUNNY   63  59  88 NE8       30.07S
HAKALAU*         N/A     52  32  47 W3          N/A
KALOKO-HONOKO* NOT AVBL
PALI 2*          N/A     64  59  82 N8G14       N/A
KEALAKOMO*       N/A     64  52  63 NE7G18      N/A
KAUPULEHU*     NOT AVBL
KAPAPALA*        N/A     65  63  94 N3          N/A
LOWER KAHUKU*  NOT AVBL
PUHE CS*       NOT AVBL
PUHO CS*       NOT AVBL
PTA KEAMUKU*     N/A     63  59  88 CALM        N/A
WAIKOLOA*      NOT AVBL
$$

HIZ027>028-041100-
BIG ISLAND OF HAWAII INTERIOR AND SUMMMITS-

CITY           SKY/WX    TMP DP  RH WIND       PRES   REMARKS
BRADSHAW FIELD CLEAR     56  44  63 W2        30.29F
MK VISITOR CEN   N/A      0   0 100 MISG        N/A
MAUNA KEA*       N/A     30  19  64 E17         N/A  WCI  18
MAUNA LOA*       N/A    N/A N/A N/A MISG        N/A
MAUNA LOA 1*   NOT AVBL
PTA KIPUKA*      N/A     54  52  94 E2          N/A
PTA RANGE 17*    N/A     59  57  94 NW2         N/A
PTA WEST*        N/A     75  73  94 SE5         N/A
NENE CABIN*    NOT AVBL
AHUMOA*        NOT AVBL
PTA PORTABLE*  NOT AVBL
PUU MALI*        N/A    N/A N/A N/A SE10        N/A
$$

HIC003-041100-
NORTHWEST ISLANDS-

CITY           SKY/WX    TMP DP  RH WIND       PRES   REMARKS
MIDWAY ISLAND  CLEAR     79  75  89 W7        29.90S
MIDWAY NOS*    NOT AVBL
FRENCH FRIGATE NOT AVBL
$$

PHZ110>124-180-041100-
BUOY REPORTS

STATION/POSITION TIME  TEMP    WIND        PRES    WAVE   SWELL
                       AIR SEA DIR/SP/G            HT/PER HT/DIR
                 (UTC) (F)     (DEG/KT/KT) (MB)    (FT/S) (FT/D)
BUOY 51001       NOT AVBL
BUOY 51101       1000   79 81  170/ 10/ 12 1012.7F   5/ 9   5/130
BUOY 51100       NOT AVBL
BUOY 51002       1000   80 81   90/ 16/ 17 1013.3F   7/14   5/170
BUOY 51003       0900   81 82  150/ 10/ 12 1013.6R   6/14   5
BUOY 51004       0918   78 80   60/ 14/ 16 1013.2F   6/14   5/200
BARBERS PT BUOY  NOT AVBL
WAIMEA BAY BUOY  1000      79                N/A     3/ 9   2/310
KAILUA BAY BUOY  1000      80                N/A     4/ 9   2/120
LANAI BUOY       NOT AVBL
BARBERS PT 2     1000      81                N/A     4/14   3/190
PAUWELA MAUI     1000      79                N/A     4/ 9
HILO             1000      79                N/A     5/ 8   2/ 60
KANEOHE BAY BUOY 1000      81                N/A     4/ 8
HANALEI KAUAI    1000      81                N/A     3/ 9
KAHULUI HARBOR   1000   78 82   20/ 11/ 13 1013.9F
HONOLULU HARBOR  1000   79 81   50/  3/  4 1014.5F
KILO NALU        NOT AVBL
HILO HARBOR      1000   74 78  200/  2/  4 1014.7S
MOKUOLOE         1000   79 84  110/  7/ 10 1014.7S
NAWILIWILI       1000   79 81   80/ 10/ 12 1014.2S
WHOTS BUOY       NOT AVBL
BUOY 51028       NOT AVBL
$$

......................KEY........................................
  SKY/WX - SKY CONDITIONS/PRESENT WEATHER
  TMP    - TEMPERATURE IN FAHRENHEIT
  DWPT   - DEWPOINT IN FAHRENHEIT
  RH     - RELATIVE HUMIDITY IN PERCENT
  WIND   - DIRECTION AND SPEED /MPH FOR ISLANDS...KTS FOR BUOYS/
  PRES   - MEAN SEA LEVEL PRESSURE IN INCHES OF HG
  VSB    - VISIBILITY IN MILES
  HX     - HEAT INDEX
  WCI    - WIND CHILL INDEX
  VRB    - VARIABLE WIND DIRECTION
  N/A    - NOT AVAILABLE



USA.gov is the U.S. government's official web portal to all federal, state and local government web resources and services.